Voltar ao catálogo

THORAD AGENA D DEB

AtivoSSO
NORAD 42550·DEBRIS·🇺🇸 United States

Lançado Apr 8, 1970 de Vandenberg Space Force Base

Loading…

Próximas Passagens (próximas 24 horas)

TLE

AtualizadoSource: Space-Track

Época: Sep 12, 2026, 02:02 UTC

1 42550U 70025TG  26255.08495550  .00000602  00000-0  33881-3 0  9990
2 42550  99.2741 206.3164 0022170   3.9426  60.0181 14.14419652659023

Acompanhe THORAD AGENA D DEB em tempo real com AllMySat

Download on the App Store